| time (UTC) | temp F | wind direction | speed knots | gust knots | rain 1hr in | rain 24hr in | rain mn in | humidity % | barometer mb |
| 20260507035543 | 55 | 215 | 0.0 | 0.9 | 0.00 | 0.12 | 0.12 | 95 | 1006.2 |
| 20260507034023 | 55 | 200 | 0.0 | 0.0 | 0.00 | 0.12 | 0.12 | 95 | 1006.3 |
| 20260507032526 | 56 | 207 | 0.9 | 5.2 | 0.00 | 0.12 | 0.12 | 95 | 1006.5 |
| 20260507031026 | 56 | 218 | 0.0 | 5.2 | 0.00 | 0.12 | 0.12 | 95 | 1006.3 |
| 20260507025529 | 56 | 200 | 0.0 | 2.6 | 0.00 | 0.12 | 0.12 | 95 | 1006.3 |
| 20260507024049 | 56 | 219 | 0.0 | 2.6 | 0.00 | 0.12 | 0.12 | 95 | 1006.2 |
| 20260507022531 | 56 | 201 | 0.0 | 0.9 | 0.00 | 0.12 | 0.12 | 95 | 1006.1 |
| 20260507021032 | 56 | 204 | 0.9 | 7.8 | 0.00 | 0.12 | 0.12 | 95 | 1006.5 |
| 20260507015514 | 56 | 219 | 0.0 | 6.1 | 0.00 | 0.12 | 0.12 | 95 | 1006.7 |
| 20260507014016 | 56 | 197 | 0.0 | 5.2 | 0.00 | 0.12 | 0.12 | 95 | 1006.7 |
| 20260507012516 | 56 | 234 | 0.9 | 4.3 | 0.01 | 0.12 | 0.12 | 94 | 1006.9 |
| 20260507011019 | 56 | 251 | 0.9 | 8.7 | 0.01 | 0.12 | 0.12 | 95 | 1007.1 |
| 20260507005519 | 57 | 222 | 0.0 | 9.6 | 0.01 | 0.12 | 0.12 | 94 | 1007.1 |
| 20260507004023 | 57 | 117 | 0.0 | 5.2 | 0.02 | 0.12 | 0.12 | 94 | 1006.9 |
| 20260507002522 | 57 | 238 | 0.0 | 7.8 | 0.03 | 0.11 | 0.11 | 94 | 1006.9 |
| 20260507001026 | 57 | 196 | 0.9 | 6.1 | 0.04 | 0.11 | 0.11 | 94 | 1007.1 |
| 20260506235525 | 58 | 244 | 3.5 | 12.2 | 0.05 | 0.11 | 0.11 | 94 | 1007.0 |
| 20260506234030 | 58 | 209 | 0.9 | 7.8 | 0.07 | 0.10 | 0.10 | 94 | 1006.9 |
| 20260506232529 | 57 | 211 | 0.9 | 6.1 | 0.06 | 0.08 | 0.08 | 94 | 1006.8 |
| 20260506231032 | 57 | 188 | 0.9 | 7.0 | 0.06 | 0.07 | 0.07 | 94 | 1006.7 |
| 20260506225532 | 58 | 252 | 1.7 | 10.4 | 0.06 | 0.06 | 0.06 | 93 | 1006.6 |
| 20260506224017 | 57 | 196 | 2.6 | 10.4 | 0.03 | 0.03 | 0.03 | 93 | 1006.9 |
| 20260506222516 | 57 | 244 | 1.7 | 10.4 | 0.02 | 0.02 | 0.02 | 92 | 1007.1 |
| 20260506221020 | 58 | 207 | 1.7 | 13.0 | 0.01 | 0.01 | 0.01 | 91 | 1007.5 |
| 20260506215519 | 58 | 223 | 0.9 | 15.6 | 0.00 | 0.00 | 0.00 | 89 | 1007.6 |
| 20260506214020 | 59 | 219 | 0.9 | 5.2 | 0.00 | 0.00 | 0.00 | 88 | 1007.5 |
| 20260506212521 | 60 | 180 | 0.9 | 9.6 | 0.00 | 0.00 | 0.00 | 87 | 1007.6 |
| 20260506211021 | 60 | 162 | 0.0 | 7.0 | 0.00 | 0.00 | 0.00 | 87 | 1007.7 |
| 20260506205525 | 60 | 178 | 0.9 | 11.3 | 0.00 | 0.00 | 0.00 | 85 | 1007.8 |
| 20260506204027 | 60 | 221 | 0.9 | 8.7 | 0.00 | 0.00 | 0.00 | 86 | 1007.9 |
| 20260506202529 | 60 | 232 | 2.6 | 13.0 | 0.00 | 0.00 | 0.00 | 85 | 1007.9 |
| 20260506201030 | 60 | 199 | 0.0 | 4.3 | 0.00 | 0.00 | 0.00 | 85 | 1008.2 |
| 20260506195514 | 60 | 254 | 1.7 | 20.9 | 0.00 | 0.00 | 0.00 | 83 | 1008.4 |
| 20260506194054 | 61 | 193 | 4.3 | 19.1 | 0.00 | 0.00 | 0.00 | 80 | 1008.5 |
| 20260506192515 | 62 | 213 | 3.5 | 16.5 | 0.00 | 0.00 | 0.00 | 79 | 1008.6 |
| 20260506191015 | 62 | 215 | 3.5 | 15.6 | 0.00 | 0.00 | 0.00 | 79 | 1008.7 |
| 20260506185519 | 62 | 179 | 1.7 | 13.0 | 0.00 | 0.00 | 0.00 | 78 | 1008.7 |
| 20260506184019 | 63 | 218 | 4.3 | 20.0 | 0.00 | 0.00 | 0.00 | 77 | 1008.7 |
| 20260506182518 | 63 | 165 | 2.6 | 13.0 | 0.00 | 0.00 | 0.00 | 78 | 1009.1 |
| 20260506181022 | 63 | 238 | 3.5 | 19.1 | 0.00 | 0.00 | 0.00 | 78 | 1009.3 |
| 20260506175521 | 63 | 215 | 3.5 | 14.8 | 0.00 | 0.00 | 0.00 | 77 | 1009.6 |
| 20260506174026 | 64 | 208 | 4.3 | 24.3 | 0.00 | 0.00 | 0.00 | 76 | 1010.0 |
| 20260506172525 | 64 | 251 | 1.7 | 16.5 | 0.00 | 0.00 | 0.00 | 77 | 1009.7 |
| 20260506171030 | 64 | 269 | 1.7 | 16.5 | 0.00 | 0.00 | 0.00 | 77 | 1009.8 |
| 20260506165528 | 63 | 207 | 3.5 | 17.4 | 0.00 | 0.00 | 0.00 | 79 | 1010.2 |
| 20260506164031 | 62 | 236 | 0.9 | 21.7 | 0.00 | 0.00 | 0.00 | 80 | 1010.6 |
| 20260506162530 | 62 | 261 | 1.7 | 12.2 | 0.00 | 0.00 | 0.00 | 79 | 1010.5 |
| 20260506161014 | 64 | 198 | 5.2 | 17.4 | 0.00 | 0.00 | 0.00 | 76 | 1010.9 |
| 20260506155514 | 65 | 176 | 7.8 | 21.7 | 0.00 | 0.00 | 0.00 | 76 | 1010.9 |
| 20260506154018 | 64 | 228 | 0.9 | 19.1 | 0.00 | 0.00 | 0.00 | 78 | 1011.0 |
| 20260506152519 | 64 | 236 | 3.5 | 13.9 | 0.00 | 0.00 | 0.00 | 77 | 1011.1 |
| 20260506151024 | 64 | 249 | 7.8 | 32.2 | 0.00 | 0.00 | 0.00 | 77 | 1011.2 |
| 20260506145522 | 64 | 171 | 4.3 | 15.6 | 0.00 | 0.00 | 0.00 | 77 | 1011.0 |
| 20260506144023 | 63 | 232 | 3.5 | 17.4 | 0.00 | 0.00 | 0.00 | 79 | 1011.3 |
| 20260506142525 | 63 | 162 | 6.1 | 18.2 | 0.00 | 0.00 | 0.00 | 79 | 1011.1 |
| 20260506141025 | 63 | 219 | 3.5 | 9.6 | 0.00 | 0.00 | 0.00 | 78 | 1010.8 |
| 20260506135529 | 63 | 230 | 4.3 | 16.5 | 0.00 | 0.00 | 0.00 | 78 | 1011.0 |
| 20260506134030 | 63 | 233 | 2.6 | 15.6 | 0.00 | 0.00 | 0.00 | 79 | 1011.4 |
| 20260506132553 | 63 | 196 | 3.5 | 16.5 | 0.00 | 0.00 | 0.00 | 79 | 1011.4 |
| 20260506131033 | 62 | 234 | 1.7 | 12.2 | 0.00 | 0.00 | 0.00 | 79 | 1011.2 |
| 20260506125516 | 62 | 238 | 3.5 | 16.5 | 0.00 | 0.00 | 0.00 | 81 | 1011.2 |
| 20260506124016 | 61 | 219 | 2.6 | 14.8 | 0.00 | 0.00 | 0.00 | 81 | 1011.2 |
| 20260506122520 | 61 | 184 | 0.0 | 13.9 | 0.00 | 0.00 | 0.00 | 83 | 1011.4 |
| 20260506121019 | 61 | 184 | 0.0 | 10.4 | 0.00 | 0.00 | 0.00 | 83 | 1011.3 |
| 20260506115522 | 60 | 226 | 0.9 | 10.4 | 0.00 | 0.00 | 0.00 | 85 | 1011.7 |
| 20260506114023 | 59 | 200 | 1.7 | 10.4 | 0.00 | 0.00 | 0.00 | 86 | 1011.7 |
| 20260506112523 | 58 | 184 | 0.0 | 4.3 | 0.00 | 0.00 | 0.00 | 87 | 1011.7 |
| 20260506111027 | 58 | 215 | 0.9 | 7.8 | 0.00 | 0.00 | 0.00 | 87 | 1011.7 |
| 20260506105527 | 58 | 186 | 2.6 | 8.7 | 0.00 | 0.00 | 0.00 | 88 | 1011.6 |
| 20260506104030 | 57 | 178 | 0.0 | 7.8 | 0.00 | 0.00 | 0.00 | 89 | 1011.8 |
| 20260506102529 | 57 | 232 | 0.0 | 11.3 | 0.00 | 0.00 | 0.00 | 89 | 1011.6 |
| 20260506101033 | 57 | 163 | 0.0 | 13.0 | 0.00 | 0.00 | 0.00 | 89 | 1011.5 |
| 20260506095532 | 57 | 175 | 0.9 | 8.7 | 0.00 | 0.00 | 0.00 | 89 | 1011.4 |
| 20260506094017 | 57 | 202 | 0.0 | 8.7 | 0.00 | 0.00 | 0.00 | 89 | 1011.6 |
| 20260506092516 | 57 | 188 | 0.0 | 11.3 | 0.00 | 0.00 | 0.00 | 89 | 1011.5 |
| 20260506091019 | 58 | 204 | 0.9 | 12.2 | 0.00 | 0.00 | 0.00 | 89 | 1011.6 |
| 20260506085518 | 58 | 222 | 0.0 | 10.4 | 0.00 | 0.00 | 0.00 | 89 | 1011.8 |
| 20260506084023 | 58 | 204 | 2.6 | 13.0 | 0.00 | 0.00 | 0.00 | 89 | 1011.7 |
| 20260506082522 | 58 | 209 | 0.0 | 7.0 | 0.00 | 0.00 | 0.00 | 89 | 1011.8 |
| 20260506081026 | 58 | 218 | 0.9 | 13.0 | 0.00 | 0.00 | 0.00 | 90 | 1011.7 |
| 20260506072529 | 56 | 238 | 1.7 | 9.6 | 0.00 | 0.00 | 0.00 | 90 | 1011.7 |
| 20260506071049 | 56 | 194 | 1.7 | 9.6 | 0.00 | 0.00 | 0.00 | 89 | 1011.7 |
| 20260506062513 | 57 | 224 | 0.0 | 12.2 | 0.00 | 0.00 | 0.00 | 87 | 1011.5 |
| 20260506061054 | 57 | 203 | 0.0 | 7.0 | 0.00 | 0.00 | 0.00 | 87 | 1011.6 |
| 20260506051019 | 58 | 199 | 0.9 | 12.2 | 0.00 | 0.00 | 0.00 | 86 | 1012.1 |
| 20260506044042 | 57 | 201 | 0.9 | 8.7 | 0.00 | 0.00 | 0.00 | 86 | 1012.1 |
| 20260506042541 | 57 | 186 | 0.9 | 7.0 | 0.00 | 0.00 | 0.00 | 86 | 1012.0 |
| 20260506041025 | 57 | 217 | 2.6 | 9.6 | 0.00 | 0.00 | 0.00 | 86 | 1012.1 |